DW2973 Weather Reports


Display with metric or nautical units.
time (UTC)temp
F
wind
direction
speed
MPH
gust
MPH
rain 1hr
in
rain 24hr
in
rain mn
in
humidity
%
barometer
mb
20260904161522 61 253 0.0 0.0 0.00 0.00 0.02 92 998.0
20260904160022 61 218 0.0 0.0 0.00 0.00 0.02 92 998.0
20260904154522 61 220 0.0 0.0 0.00 0.00 0.02 92 998.2
20260904153029 61 220 0.0 0.0 0.00 0.00 0.02 92 998.1
20260904151534 61 246 0.0 0.0 0.00 0.00 0.02 92 998.0
20260904150022 61 259 1.0 0.0 0.00 0.00 0.02 93 997.9
20260904144520 62 239 0.0 0.0 0.00 0.00 0.02 93 998.2
20260904143017 61 246 0.0 0.0 0.00 0.00 0.02 93 998.2
20260904141517 60 222 0.0 0.0 0.00 0.00 0.02 94 998.3
20260904140016 59 286 0.0 0.0 0.00 0.00 0.02 93 998.1
20260904134520 58 286 0.0 0.0 0.00 0.00 0.02 93 998.3
20260904133013 58 286 0.0 0.0 0.00 0.00 0.02 93 998.4
20260904131511 58 287 0.0 0.0 0.00 0.00 0.02 92 998.5
20260904130010 59 287 0.0 0.0 0.00 0.00 0.02 92 998.7
20260904124510 60 227 0.0 0.0 0.00 0.00 0.02 92 998.6
20260904123008 60 227 0.0 0.0 0.00 0.00 0.01 92 998.5
20260904121506 60 227 0.0 0.0 0.00 0.00 0.01 92 998.9
20260904120005 60 223 0.0 0.0 0.00 0.00 0.01 92 999.2
20260904114502 60 215 1.0 0.0 0.00 0.00 0.01 92 999.4
20260904113001 60 218 2.0 0.0 0.00 0.00 0.01 92 999.6
20260904111602 60 225 2.0 0.0 0.00 0.00 0.01 92 999.5
20260904110100 61 229 2.0 0.0 0.00 0.00 0.01 92 999.4
20260904104559 61 234 3.0 0.0 0.00 0.00 0.01 92 999.6
20260904103057 61 230 2.0 0.0 0.00 0.00 0.01 91 999.6
20260904101555 61 223 4.0 0.0 0.00 0.00 0.01 91 1000.0
20260904100053 61 230 4.0 0.0 0.00 0.00 0.01 91 1000.3
20260904094554 61 223 3.0 0.0 0.00 0.00 0.01 91 1000.3
20260904093050 60 228 3.0 0.0 0.00 0.00 0.01 91 1000.7
20260904091548 60 232 1.0 0.0 0.00 0.00 0.01 90 1001.0
20260904090046 60 239 2.0 0.0 0.00 0.00 0.01 90 1001.4
20260904084554 60 225 2.0 0.0 0.00 0.00 0.01 90 1001.4
20260904083042 60 221 1.0 0.0 0.00 0.00 0.01 90 1001.8
20260904081541 60 221 2.0 0.0 0.00 0.00 0.01 89 1001.8
20260904080100 60 229 2.0 0.0 0.00 0.00 0.01 89 1001.9
20260904074538 60 233 2.0 0.0 0.00 0.00 0.01 90 1002.0
20260904073037 60 227 1.0 0.0 0.00 0.00 0.01 90 1002.1
20260904071535 59 232 1.0 0.0 0.00 0.00 0.01 90 1002.3
20260904070136 59 229 0.0 0.0 0.00 0.00 0.01 90 1002.4
20260904064532 59 229 0.0 0.0 0.00 0.00 0.01 90 1002.8
20260904063030 59 229 0.0 0.0 0.00 0.00 0.01 90 1002.9
20260904061528 58 229 0.0 0.0 0.00 0.00 0.01 89 1003.2
20260904060027 59 229 0.0 0.0 0.00 0.00 0.01 89 1003.3
20260904054533 59 224 0.0 0.0 0.00 0.00 0.01 88 1003.4
20260904053027 59 246 0.0 0.0 0.00 0.00 0.01 88 1003.8
20260904051522 59 227 0.0 0.0 0.00 0.00 0.01 87 1003.9
20260904050022 59 227 0.0 0.0 0.00 0.00 0.00 87 1003.9
20260904044531 59 225 0.0 0.0 0.00 0.00 0.00 86 1004.0
20260904043034 59 245 0.0 0.0 0.00 0.00 0.00 86 1004.0
20260904041520 59 222 0.0 0.0 0.00 0.00 0.00 86 1003.9
20260904040019 59 227 1.0 0.0 0.00 0.00 0.00 86 1003.7
20260904034517 59 244 0.0 0.0 0.00 0.00 0.00 86 1004.1
20260904033027 59 250 1.0 0.0 0.00 0.00 0.00 86 1004.4
20260904031515 59 309 0.0 0.0 0.00 0.00 0.00 86 1004.4
20260904030014 59 255 0.0 0.0 0.00 0.00 0.00 87 1004.7
20260904024514 60 219 1.0 0.0 0.00 0.00 0.00 87 1004.4
20260904023011 60 223 0.0 0.0 0.00 0.00 0.00 87 1004.7
20260904021510 60 257 0.0 0.0 0.00 0.00 0.00 88 1004.7
20260904020009 60 234 1.0 0.0 0.00 0.00 0.00 88 1005.0
20260904014512 60 288 1.0 0.0 0.00 0.00 0.00 88 1005.1
20260904013007 60 245 1.0 0.0 0.00 0.00 0.00 89 1005.1
20260904011507 60 230 0.0 0.0 0.00 0.00 0.00 89 1005.1
20260904010011 60 233 1.0 0.0 0.00 0.00 0.00 89 1005.2
20260904004504 60 236 1.0 0.0 0.00 0.00 0.00 89 1005.3
20260904003003 60 226 1.0 0.0 0.00 0.00 0.00 89 1005.4
20260904001505 60 215 0.0 0.0 0.00 0.00 0.00 89 1005.6
20260904000003 60 216 1.0 0.0 0.00 0.00 0.00 88 1005.4
20260903234559 61 296 1.0 0.0 0.00 0.00 0.00 89 1005.5
20260903233058 61 213 1.0 0.0 0.00 0.00 0.00 89 1005.7
20260903231602 61 245 0.0 0.0 0.00 0.00 0.00 89 1005.6
20260903230057 61 230 0.0 0.0 0.00 0.00 0.00 89 1005.6
20260903224601 61 286 1.0 0.0 0.00 0.00 0.00 89 1005.7
20260903223055 61 238 1.0 0.0 0.00 0.00 0.00 89 1005.9
20260903221555 61 250 1.0 0.0 0.00 0.00 0.00 89 1006.0
20260903220053 61 206 0.0 0.0 0.00 0.00 0.00 89 1005.8
20260903214603 61 236 1.0 0.0 0.00 0.00 0.03 88 1005.7
20260903213052 61 238 1.0 0.0 0.00 0.00 0.02 88 1005.8
20260903211554 61 257 1.0 0.0 0.00 0.00 0.02 89 1005.8
20260903210107 61 267 1.0 0.0 0.00 0.00 0.02 88 1005.8
20260903204601 61 287 0.0 0.0 0.00 0.00 0.02 89 1005.8
20260903203051 61 240 0.0 0.0 0.00 0.00 0.02 89 1006.0
20260903201549 62 286 0.0 0.0 0.00 0.00 0.02 89 1005.7
20260903200104 62 260 0.0 0.0 0.00 0.00 0.02 89 1005.8
20260903194548 62 217 1.0 0.0 0.00 0.00 0.02 89 1005.8
20260903193047 63 228 1.0 0.0 0.00 0.00 0.02 89 1005.6
20260903191559 63 248 1.0 0.0 0.00 0.00 0.02 89 1005.6
20260903190046 63 279 0.0 0.0 0.00 0.00 0.02 89 1005.5
20260903184549 63 203 0.0 0.0 0.00 0.00 0.02 88 1005.5
20260903183051 63 176 1.0 0.0 0.00 0.00 0.02 88 1005.4
20260903181545 63 233 1.0 0.0 0.00 0.00 0.02 89 1005.1
20260903180046 64 257 2.0 0.0 0.00 0.00 0.02 89 1005.0
20260903174545 65 226 2.0 0.0 0.00 0.00 0.02 89 1004.7
20260903173045 65 234 2.0 0.0 0.00 0.00 0.02 89 1004.7
20260903171601 65 296 2.0 0.0 0.00 0.00 0.02 88 1004.7
20260903170050 66 221 2.0 0.0 0.00 0.00 0.02 88 1004.6
20260903164543 66 243 3.0 0.0 0.00 0.00 0.02 88 1004.3
20260903163043 66 253 2.0 0.0 0.00 0.00 0.02 89 1004.4